Location: Unspecified
(41.5000°N, 0.0000°E)
Time: 10:46:00
(UTC+00:00)

Vanguard 1 - Pass Details

Date: 26 June 2019
Orbit: 655 x 3829 km, 34.2° (Epoch: 16 August)

Event Time Altitude Azimuth Distance (km) Brightness Sun altitude
Exits shadow 00:14:15 32° 186° (S) 4,992 13.0 -25.1°
Maximum altitude 00:21:48 40° 151° (SSE) 4,225 12.8 -25.0°
Drops below altitude 10° 00:35:50 10° 89° (E) 5,002 13.7 -24.7°
Sets 00:39:17 0° 82° (E) 5,631 14.2 -24.6°
